• Em Portugal
  • Lista de países
  • Para 7 dias
  • Temperatura da água
  • Mapas de satélite
  • Mapa do tempo
  • Widgets de tempo
  • user-avatar
    Iniciar Sessão

    Previsão horária em Lugiele

    Hoje, 16 Agosto, Quinta-feira

    Tempo Temperatura Precipitação Vento Pressão Humidade
    00:00 +15°C° 0 mm 2 m/s 742 mmHg 97%
    01:00 +15°C° 0 mm 2 m/s 742 mmHg 98%
    02:00 +14°C° 0 mm 2 m/s 742 mmHg 98%
    03:00 +14°C° 0 mm 2 m/s 742 mmHg 98%
    04:00 +14°C° 0 mm 2 m/s 742 mmHg 98%
    05:00 +14°C° 0 mm 2 m/s 743 mmHg 98%
    06:00 +15°C° 0 mm 2 m/s 743 mmHg 95%
    07:00 +16°C° 0 mm 2 m/s 743 mmHg 91%
    08:00 +17°C° 0 mm 2 m/s 743 mmHg 88%
    09:00 +19°C° 0 mm 2 m/s 744 mmHg 81%
    10:00 +20°C° 0 mm 2 m/s 744 mmHg 75%
    11:00 +21°C° 0 mm 2 m/s 744 mmHg 68%
    12:00 +23°C° 0,1 mm 2 m/s 744 mmHg 65%
    13:00 +24°C° 0,1 mm 2 m/s 744 mmHg 62%
    14:00 +24°C° 0,1 mm 2 m/s 744 mmHg 59%
    15:00 +24°C° 0,1 mm 1 m/s 744 mmHg 60%
    16:00 +24°C° 0,1 mm 1 m/s 744 mmHg 61%
    17:00 +24°C° 0,1 mm 1 m/s 743 mmHg 62%
    18:00 +23°C° 0 mm 1 m/s 743 mmHg 69%
    19:00 +21°C° 0 mm 1 m/s 743 mmHg 76%
    20:00 +19°C° 0 mm 1 m/s 743 mmHg 83%
    21:00 +19°C° 0 mm 1 m/s 743 mmHg 85%
    22:00 +18°C° 0 mm 1 m/s 744 mmHg 87%
    23:00 +16°C° 0 mm 1 m/s 744 mmHg 89%

    Amanhã, 17 Agosto, Sexta-feira

    Tempo Temperatura Precipitação Vento Pressão Humidade
    00:00 +16°C° 0 mm 1 m/s 744 mmHg 90%
    01:00 +16°C° 0 mm 1 m/s 744 mmHg 91%
    02:00 +15°C° 0 mm 1 m/s 744 mmHg 92%
    03:00 +15°C° 0 mm 1 m/s 744 mmHg 92%
    04:00 +15°C° 0 mm 1 m/s 744 mmHg 93%
    05:00 +15°C° 0 mm 1 m/s 744 mmHg 93%
    06:00 +16°C° 0 mm 2 m/s 744 mmHg 90%
    07:00 +17°C° 0 mm 2 m/s 744 mmHg 86%
    08:00 +19°C° 0 mm 2 m/s 744 mmHg 82%
    09:00 +20°C° 0 mm 2 m/s 744 mmHg 76%
    10:00 +23°C° 0 mm 2 m/s 744 mmHg 70%
    11:00 +24°C° 0 mm 2 m/s 744 mmHg 63%
    12:00 +25°C° 0 mm 2 m/s 744 mmHg 61%
    13:00 +25°C° 0 mm 2 m/s 743 mmHg 58%
    14:00 +26°C° 0 mm 2 m/s 743 mmHg 55%
    15:00 +26°C° 0 mm 2 m/s 743 mmHg 56%
    16:00 +26°C° 0 mm 2 m/s 743 mmHg 57%
    17:00 +26°C° 0 mm 2 m/s 742 mmHg 59%
    18:00 +24°C° 0 mm 2 m/s 742 mmHg 65%
    19:00 +21°C° 0 mm 2 m/s 742 mmHg 71%
    20:00 +20°C° 0 mm 2 m/s 742 mmHg 76%
    21:00 +20°C° 0 mm 1 m/s 742 mmHg 79%
    22:00 +19°C° 0 mm 1 m/s 742 mmHg 82%
    23:00 +18°C° 0 mm 1 m/s 742 mmHg 85%

    Depois de amanhã, 18 Agosto, Sábado

    Tempo Temperatura Precipitação Vento Pressão Humidade
    00:00 +18°C° 0 mm 1 m/s 742 mmHg 86%
    01:00 +18°C° 0 mm 1 m/s 742 mmHg 88%
    02:00 +16°C° 0 mm 1 m/s 742 mmHg 89%
    03:00 +16°C° 0 mm 1 m/s 742 mmHg 90%
    04:00 +16°C° 0 mm 1 m/s 742 mmHg 91%
    05:00 +16°C° 0 mm 1 m/s 742 mmHg 92%
    06:00 +18°C° 0 mm 1 m/s 742 mmHg 87%
    07:00 +20°C° 0 mm 1 m/s 743 mmHg 83%
    08:00 +21°C° 0 mm 1 m/s 743 mmHg 78%
    09:00 +23°C° 0 mm 1 m/s 743 mmHg 71%
    10:00 +24°C° 0 mm 1 m/s 743 mmHg 65%
    11:00 +26°C° 0 mm 1 m/s 743 mmHg 59%
    12:00 +27°C° 0 mm 1 m/s 743 mmHg 56%
    13:00 +27°C° 0 mm 1 m/s 743 mmHg 53%
    14:00 +28°C° 0 mm 1 m/s 742 mmHg 50%
    15:00 +27°C° 0,2 mm 1 m/s 742 mmHg 54%
    16:00 +27°C° 0,2 mm 2 m/s 742 mmHg 58%
    17:00 +26°C° 0,2 mm 2 m/s 742 mmHg 62%
    18:00 +24°C° 0,1 mm 2 m/s 742 mmHg 68%
    19:00 +23°C° 0,1 mm 1 m/s 742 mmHg 74%
    20:00 +21°C° 0,1 mm 1 m/s 742 mmHg 80%
    21:00 +20°C° 0 mm 1 m/s 742 mmHg 83%
    22:00 +20°C° 0 mm 1 m/s 743 mmHg 85%
    23:00 +19°C° 0 mm 1 m/s 743 mmHg 87%

    19 Agosto, Domingo

    Tempo Temperatura Precipitação Vento Pressão Humidade
    00:00 +19°C° 0 mm 1 m/s 743 mmHg 89%
    01:00 +17°C° 0 mm 2 m/s 743 mmHg 91%
    02:00 +17°C° 0 mm 2 m/s 743 mmHg 93%
    03:00 +16°C° 0 mm 2 m/s 743 mmHg 94%
    04:00 +16°C° 0 mm 2 m/s 743 mmHg 95%
    05:00 +15°C° 0 mm 2 m/s 743 mmHg 96%
    06:00 +16°C° 0 mm 2 m/s 744 mmHg 92%
    07:00 +17°C° 0 mm 2 m/s 744 mmHg 87%
    08:00 +18°C° 0 mm 2 m/s 744 mmHg 82%
    09:00 +19°C° 0 mm 3 m/s 744 mmHg 76%
    10:00 +20°C° 0 mm 3 m/s 744 mmHg 69%
    11:00 +21°C° 0 mm 3 m/s 744 mmHg 63%
    12:00 +22°C° 0 mm 3 m/s 744 mmHg 63%
    13:00 +22°C° 0 mm 4 m/s 744 mmHg 63%
    14:00 +23°C° 0 mm 4 m/s 744 mmHg 63%
    15:00 +22°C° 0 mm 4 m/s 744 mmHg 64%
    16:00 +22°C° 0 mm 4 m/s 744 mmHg 66%
    17:00 +22°C° 0 mm 4 m/s 744 mmHg 68%
    18:00 +21°C° 0 mm 3 m/s 744 mmHg 74%
    19:00 +19°C° 0 mm 2 m/s 744 mmHg 80%
    20:00 +19°C° 0 mm 1 m/s 744 mmHg 86%
    21:00 +18°C° 0 mm 1 m/s 744 mmHg 88%
    22:00 +18°C° 0 mm 1 m/s 744 mmHg 90%
    23:00 +16°C° 0 mm 1 m/s 744 mmHg 92%

    20 Agosto, Segunda-feira

    Tempo Temperatura Precipitação Vento Pressão Humidade
    00:00 +16°C° 0 mm 1 m/s 744 mmHg 93%
    01:00 +16°C° 0 mm 1 m/s 744 mmHg 94%
    02:00 +15°C° 0 mm 1 m/s 744 mmHg 95%
    03:00 +15°C° 0 mm 1 m/s 744 mmHg 95%
    04:00 +15°C° 0 mm 1 m/s 744 mmHg 96%
    05:00 +15°C° 0 mm 1 m/s 744 mmHg 96%
    06:00 +16°C° 0 mm 1 m/s 744 mmHg 92%
    07:00 +18°C° 0 mm 1 m/s 744 mmHg 89%
    08:00 +19°C° 0 mm 1 m/s 744 mmHg 85%
    09:00 +19°C° 0 mm 2 m/s 744 mmHg 79%
    10:00 +21°C° 0 mm 2 m/s 744 mmHg 73%
    11:00 +23°C° 0 mm 2 m/s 744 mmHg 67%
    12:00 +23°C° 0 mm 2 m/s 744 mmHg 65%
    13:00 +24°C° 0 mm 2 m/s 744 mmHg 62%
    14:00 +25°C° 0 mm 2 m/s 744 mmHg 59%
    15:00 +25°C° 0 mm 2 m/s 744 mmHg 59%
    16:00 +25°C° 0 mm 2 m/s 743 mmHg 59%
    17:00 +25°C° 0 mm 2 m/s 743 mmHg 60%
    18:00 +23°C° 0 mm 1 m/s 743 mmHg 66%
    19:00 +22°C° 0 mm 1 m/s 743 mmHg 72%
    20:00 +20°C° 0 mm 1 m/s 743 mmHg 78%
    21:00 +20°C° 0 mm 1 m/s 742 mmHg 78%
    22:00 +18°C° 0 mm 2 m/s 742 mmHg 79%
    23:00 +18°C° 0 mm 2 m/s 742 mmHg 80%

    21 Agosto, Terça-feira

    Tempo Temperatura Precipitação Vento Pressão Humidade
    00:00 +18°C° 0 mm 3 m/s 742 mmHg 79%
    01:00 +18°C° 0 mm 3 m/s 742 mmHg 78%
    02:00 +18°C° 0 mm 3 m/s 742 mmHg 77%
    03:00 +18°C° 0 mm 3 m/s 742 mmHg 76%
    04:00 +18°C° 0 mm 3 m/s 741 mmHg 75%
    05:00 +18°C° 0 mm 3 m/s 741 mmHg 74%
    06:00 +19°C° 0 mm 3 m/s 741 mmHg 74%
    07:00 +19°C° 0 mm 3 m/s 741 mmHg 73%
    08:00 +20°C° 0 mm 3 m/s 741 mmHg 73%
    09:00 +21°C° 0 mm 3 m/s 742 mmHg 70%
    10:00 +24°C° 0 mm 3 m/s 742 mmHg 67%
    11:00 +25°C° 0 mm 4 m/s 742 mmHg 63%
    12:00 +26°C° 0,1 mm 4 m/s 742 mmHg 62%
    13:00 +26°C° 0,1 mm 4 m/s 741 mmHg 61%
    14:00 +27°C° 0,1 mm 4 m/s 741 mmHg 60%
    15:00 +26°C° 0,1 mm 4 m/s 741 mmHg 63%
    16:00 +26°C° 0,1 mm 4 m/s 741 mmHg 65%
    17:00 +25°C° 0,1 mm 4 m/s 741 mmHg 68%
    18:00 +24°C° 0,1 mm 3 m/s 741 mmHg 75%
    19:00 +21°C° 0,1 mm 2 m/s 741 mmHg 82%
    20:00 +19°C° 0,1 mm 2 m/s 741 mmHg 88%
    21:00 +18°C° 0 mm 2 m/s 742 mmHg 90%
    22:00 +19°C° 0 mm 1 m/s 742 mmHg 92%
    23:00 +18°C° 0 mm 1 m/s 742 mmHg 94%
    Mostrar mais